Temperature
19 20 19 21 21 21 21 20 20 20 20 20 20 20 20 20 20 20 20 19 19 19 19 19 19 19 19 19 19 19 19 19 19 20 20 20 20 20 19 19 19 19 19
21 20 20 21 21 21 21 20 20 20 20 20 20 20 20 20 20 20 20 19 19 19 19 19 19 19 19 19 19 19 19 19 19 20 20 20 20 20 20 19 19 19 19
21 20 20 21 21 21 21 21 21 20 20 20 20 20 20 20 20 19 19 19 19 19 19 19 19 19 19 19 19 19 19 20 20 20 20 19 19 20 20 19 19 19 19
21 20 20 21 21 21 21 21 21 20 20 20 19 19 19 19 19 19 19 19 19 19 19 19 19 19 19 19 19 19 19 19 19 19 19 19 18 19 19 19 19 19 19
21 20 20 21 21 21 21 20 20 20 19 19 19 19 19 19 19 19 19 19 19 19 19 19 20 20 19 19 19 19 19 19 19 18 18 18 18 18 18 19 19 19 19
21 20 20 20 20 20 20 20 20 20 20 19 19 19 19 19 19 19 19 19 19 19 19 19 19 20 20 19 19 19 19 19 19 19 18 17 17 17 17 18 18 19 19
20 20 20 20 20 20 20 20 20 20 19 19 19 19 19 19 19 19 19 19 19 19 19 19 19 19 19 19 19 19 19 19 19 19 17 17 18 18 18 18 18 18 19
21 20 20 20 20 20 20 20 20 20 19 19 19 19 19 19 19 19 19 19 19 19 19 19 19 19 19 19 19 19 19 19 19 18 18 17 18 18 17 18 18 18 19
21 21 20 20 20 20 20 20 20 19 19 19 19 19 19 19 19 19 18 18 19 19 19 19 19 19 19 19 19 19 18 18 18 18 18 17 17 17 17 17 18 18 18
20 21 21 20 20 20 20 20 20 20 19 19 19 19 19 19 19 19 18 18 18 18 19 18 18 19 19 19 19 18 18 19 18 18 18 18 17 17 18 17 18 17 18
20 20 21 21 21 20 20 20 20 20 19 19 19 19 19 19 19 19 18 18 18 18 18 18 18 19 19 18 18 18 18 19 18 18 18 18 17 17 18 17 17 18 17
20 20 21 21 21 21 20 20 20 20 20 19 19 19 19 18 18 18 18 18 18 18 18 18 19 18 18 18 18 18 18 18 18 18 18 18 18 18 18 18 17 17 17
21 21 21 21 21 21 20 20 20 20 19 19 19 19 18 18 18 18 18 18 18 18 18 18 18 18 18 18 18 18 18 18 18 18 18 18 18 18 18 17 17 17 17
20 20 20 21 21 20 20 20 19 19 19 19 19 19 18 18 18 18 18 18 18 18 18 18 18 18 18 18 18 18 18 17 17 18 18 18 18 18 17 17 17 17 17
20 20 20 20 20 20 20 20 19 19 19 19 19 18 18 18 18 18 18 17 18 18 18 18 18 18 18 18 18 18 18 17 18 18 18 18 18 18 17 17 17 17 17
21 20 20 20 20 20 19 19 19 19 18 18 18 18 18 18 18 18 18 18 18 18 18 18 18 18 18 18 18 18 18 18 18 18 18 18 18 18 18 18 18 18 17
21 20 20 20 19 19 18 18 18 18 18 18 18 18 18 17 17 17 18 18 18 17 17 17 18 18 18 18 18 18 18 18 18 18 18 18 18 18 18 18 18 18 18
22 21 21 20 20 20 19 18 18 19 19 19 19 18 18 18 18 17 17 18 18 18 18 18 18 18 18 18 19 19 18 18 18 18 18 19 19 18 18 18 17 17 18
22 22 21 20 20 20 19 19 19 19 19 19 18 18 18 18 18 18 17 18 18 18 18 18 18 18 18 18 18 19 18 18 18 18 18 19 19 19 18 18 17 17 17
22 22 21 21 20 20 19 19 19 19 19 18 18 18 18 17 17 17 17 18 18 18 18 18 18 18 18 18 18 18 18 18 18 18 18 19 19 19 19 18 18 17 17
22 22 22 21 20 19 19 19 19 18 18 18 18 17 17 17 17 17 17 17 17 17 18 18 17 18 18 17 18 18 18 18 18 19 18 18 19 19 18 18 18 18 17
20 21 22 20 19 19 19 18 18 18 18 18 17 17 17 17 17 17 17 17 17 17 17 17 17 17 18 18 17 17 17 18 19 19 19 18 19 18 18 18 18 18 18
20 19 20 19 18 19 18 18 18 18 17 17 17 17 17 17 17 17 16 16 17 17 17 17 17 17 17 18 17 17 17 18 18 18 18 18 18 18 18 18 18 18 18
18 20 20 19 19 18 18 18 18 17 17 17 17 17 17 17 17 16 16 16 16 16 16 16 16 16 17 17 17 17 17 17 17 17 18 18 18 18 18 18 18 18 18
17 18 19 19 19 18 18 18 17 17 17 17 17 17 16 16 16 16 16 16 15 15 15 16 16 16 17 17 17 17 17 17 16 16 16 18 18 18 18 18 18 18 18
16 17 18 17 18 18 18 17 17 17 17 16 16 16 16 16 16 15 15 15 15 15 15 16 15 16 16 17 17 17 16 16 16 15 16 16 16 17 17 17 17 18 17
Wind_Speed
9 12 21 21 20 18 17 16 15 15 15 16 17 17 17 17 17 16 15 14 13 12 11 9 9 9 10 10 11 11 11 12 12 13 13 12 10 9 9 11 11 10 11
15 15 21 22 22 21 19 17 15 14 14 14 14 15 14 14 14 14 14 12 11 11 10 9 8 7 8 9 9 9 9 9 9 10 10 10 9 9 9 11 10 10 10
14 16 20 21 21 20 20 19 18 16 14 13 13 12 12 12 12 12 12 11 10 9 9 8 7 7 7 7 8 7 7 6 6 7 7 6 6 7 10 12 10 9 9
14 15 17 21 22 20 19 18 18 16 15 14 12 12 11 11 10 11 10 10 9 8 7 6 6 6 5 5 8 7 5 5 5 5 4 5 5 6 9 11 10 10 9
12 13 17 21 21 20 19 17 16 16 15 14 13 12 11 11 10 9 9 9 8 8 7 7 7 6 5 3 4 5 5 5 5 5 6 8 7 7 9 10 11 10 10
10 13 17 20 20 19 18 18 17 17 17 15 14 13 12 11 11 10 9 8 7 7 7 7 7 6 6 5 4 4 5 5 5 6 8 9 10 12 13 13 12 12 12
11 12 17 19 20 19 19 18 18 18 18 16 15 13 12 11 10 11 10 9 8 7 7 7 6 6 7 7 6 6 6 6 7 7 7 8 12 16 16 15 15 14 14
13 11 15 19 19 18 18 19 19 19 18 17 16 15 14 14 13 13 12 11 10 10 9 8 7 6 7 8 8 8 8 8 8 7 8 9 11 18 18 17 15 14 14
12 10 11 15 18 18 18 18 18 18 18 16 16 16 16 14 13 12 12 11 11 10 10 9 8 8 8 9 9 9 9 10 10 9 9 10 10 17 18 16 16 16 16
12 8 7 10 13 13 14 16 17 18 18 18 17 17 16 14 13 12 11 12 12 12 12 11 9 10 10 10 10 11 11 12 12 11 11 12 14 17 19 18 18 18 18
12 9 7 6 9 11 12 15 16 17 17 17 16 16 15 13 12 11 12 13 14 15 14 13 11 12 12 12 13 14 13 13 13 12 12 14 16 17 18 19 19 20 20
14 12 10 8 8 10 11 11 11 13 14 14 14 14 13 12 12 12 13 15 16 16 16 16 14 14 14 12 13 15 13 14 12 12 13 17 18 17 18 19 19 19 19
15 14 11 10 8 7 6 7 8 9 11 13 15 15 13 12 11 11 11 13 14 14 14 15 13 13 13 11 10 11 12 11 11 12 14 17 17 17 17 19 19 18 18
11 11 11 10 8 7 7 7 7 7 8 8 11 13 11 7 7 8 7 9 10 11 9 9 8 10 12 12 11 10 12 12 11 12 15 19 19 19 20 20 19 19 18
12 11 12 11 10 8 5 5 5 6 8 10 11 13 13 7 4 5 4 7 8 9 7 6 6 6 6 9 10 9 9 10 13 13 14 19 20 21 23 21 19 18 17
11 11 11 10 9 7 7 6 4 6 9 9 10 13 14 11 6 4 3 4 6 9 10 7 6 5 5 5 6 7 7 10 11 12 14 16 18 19 20 21 19 17 17
9 10 11 11 9 8 7 6 6 6 6 6 7 9 9 10 8 5 5 4 5 8 7 7 7 6 6 6 7 7 6 8 8 10 12 13 15 18 20 21 20 18 18
8 9 11 11 9 9 7 5 4 4 2 0 1 3 3 5 10 6 5 5 6 6 4 4 5 5 6 6 6 7 7 6 8 9 11 11 12 13 16 20 22 21 19
11 11 10 9 8 9 8 6 4 2 1 1 1 3 3 2 4 5 5 5 7 5 5 4 5 5 5 6 6 6 6 7 8 7 7 8 11 11 12 16 19 20 19
11 14 12 9 8 8 6 4 3 2 2 4 5 6 6 5 5 5 4 5 5 5 6 5 6 6 6 6 5 5 5 7 6 7 7 4 7 10 11 13 14 16 20
10 7 10 8 6 7 3 3 3 3 3 4 4 6 6 6 7 5 6 6 6 7 8 8 5 6 6 4 2 3 5 7 7 6 5 4 4 7 9 9 11 12 13
9 6 8 4 2 5 4 3 3 3 3 1 1 1 3 4 6 6 7 8 8 8 8 8 7 5 5 6 4 2 2 4 5 3 4 4 4 5 7 7 8 9 11
7 7 9 8 6 6 5 4 4 4 3 2 2 1 3 5 6 7 7 8 9 8 8 9 9 9 6 5 6 4 4 4 2 3 3 4 3 4 7 4 6 9 11
14 11 14 10 5 6 5 6 6 3 1 0 0 1 3 4 6 8 7 7 7 6 7 8 8 7 6 5 5 6 4 4 3 3 4 3 2 5 6 4 5 8 10
6 6 9 9 8 7 8 8 6 4 2 1 1 3 4 5 6 7 6 4 4 4 6 7 7 8 8 6 5 3 4 4 4 5 5 4 3 5 4 6 7 6 8
5 5 7 9 8 7 9 8 8 8 4 1 1 3 3 3 4 6 6 4 3 4 4 4 3 5 5 4 3 4 4 4 5 5 5 3 4 4 4 5 7 8 6
Wind_Direction
161 163 149 146 142 143 141 138 129 120 115 112 107 102 102 103 106 110 115 112 111 112 111 109 109 110 106 103 106 111 117 122 122 124 125 121 116 116 122 114 115 115 113
154 159 150 150 147 148 147 146 140 132 124 116 109 107 109 110 113 116 123 124 121 118 112 106 100 109 119 115 115 118 125 132 135 136 138 135 131 127 139 128 126 127 126
146 151 149 150 149 150 150 150 150 146 137 130 125 120 122 124 125 124 128 132 131 128 120 114 107 108 123 134 132 131 138 147 152 156 151 147 146 137 143 148 138 137 138
139 143 145 146 149 152 152 152 153 152 148 145 142 137 137 136 136 132 133 135 135 132 132 137 131 126 130 148 152 149 159 174 183 191 190 186 182 165 148 154 156 156 157
132 138 142 145 151 155 155 155 158 158 156 155 156 155 153 150 147 142 141 142 144 145 139 147 150 149 149 151 161 169 185 200 214 225 232 234 224 194 184 175 173 175 176
129 135 139 143 149 157 162 164 167 169 168 168 170 172 167 162 159 155 155 153 154 155 152 154 164 168 171 182 202 223 233 236 238 251 250 253 242 203 194 192 190 191 193
131 135 140 144 148 156 167 173 175 178 176 176 176 177 173 171 170 170 169 167 166 168 162 165 181 190 191 195 207 228 247 256 263 268 271 265 228 205 199 199 198 200 203
135 135 143 150 154 157 165 175 181 183 183 181 179 181 181 182 183 184 184 181 181 181 181 183 194 205 203 209 217 231 247 257 267 281 292 297 237 210 204 204 205 207 204
136 139 146 155 163 166 168 174 181 183 184 185 184 183 184 187 187 190 191 191 195 199 203 206 210 215 208 211 223 237 247 261 270 277 282 289 260 224 220 215 209 211 213
142 144 143 157 166 171 176 177 181 182 183 184 184 185 189 190 191 195 197 201 206 214 220 222 222 233 230 227 233 242 248 258 264 266 264 265 269 254 232 224 214 216 219
154 156 155 161 165 175 183 187 187 188 190 190 192 193 194 196 200 205 210 216 221 226 229 232 232 237 242 244 244 244 246 247 252 259 260 263 268 263 235 227 226 224 222
168 170 173 175 178 181 187 193 192 194 193 196 202 203 203 207 213 221 229 233 235 234 235 237 236 238 243 242 247 252 244 238 236 244 252 255 262 253 226 229 236 234 233
172 174 180 181 185 188 188 183 194 206 201 204 210 211 211 217 224 231 233 237 239 238 236 238 236 235 238 234 233 246 254 247 234 240 250 255 256 235 227 237 238 237 238
175 181 182 183 184 195 194 187 194 206 210 212 217 218 214 215 226 234 225 229 229 229 237 240 236 233 238 240 233 238 246 244 234 234 242 247 245 241 241 238 240 243 243
173 179 187 187 187 191 193 194 196 208 214 216 210 218 218 210 219 224 217 233 224 223 240 236 235 237 233 238 236 233 241 238 238 237 239 245 241 239 239 244 243 246 252
169 169 180 194 194 186 192 199 195 207 216 213 218 213 217 215 222 218 199 210 219 222 234 231 225 225 234 231 234 235 238 244 243 238 240 244 246 238 235 241 240 239 247
178 165 177 193 196 189 192 195 174 190 183 179 197 191 212 227 225 213 214 220 223 235 246 242 237 224 237 231 239 253 252 256 248 246 246 243 242 237 232 238 241 237 242
175 168 181 192 189 186 181 179 170 171 152 153 182 173 186 221 223 218 222 234 248 260 249 236 242 236 239 236 236 247 246 245 253 246 246 245 238 235 236 239 240 238 240
178 171 183 180 184 186 182 171 174 184 186 216 248 256 270 293 239 213 231 236 241 241 245 239 237 226 250 252 248 247 246 241 242 245 246 246 247 238 231 236 237 236 240
191 170 171 180 186 184 179 166 146 156 242 235 228 226 232 237 211 202 226 240 242 247 243 236 241 227 231 242 250 261 261 255 242 242 247 246 256 257 243 229 230 232 240
202 159 145 176 191 168 156 156 164 179 228 240 239 237 233 235 242 234 238 241 231 231 236 228 229 230 231 219 218 272 267 259 251 240 245 257 271 279 263 235 220 224 232
2 113 130 137 164 142 131 159 154 147 157 158 349 347 8 330 297 269 245 243 239 232 240 241 228 225 218 185 176 181 271 302 282 242 221 233 262 290 279 254 228 228 235
203 170 125 128 139 130 142 138 94 76 49 50 66 15 328 317 310 290 262 251 242 230 231 230 230 224 225 204 195 178 177 225 290 295 243 217 229 262 267 262 256 258 259
191 147 115 110 112 113 106 83 77 83 96 150 247 310 309 333 328 311 283 266 255 244 239 234 224 210 195 205 205 211 199 184 179 280 290 257 248 246 249 251 258 270 272
62 81 105 116 117 114 106 104 111 110 108 41 4 346 339 331 329 332 318 317 314 295 269 248 222 211 200 193 187 185 213 219 209 207 256 302 312 270 249 232 246 273 276
110 127 131 122 129 133 121 128 127 114 100 74 300 313 307 309 331 346 343 352 8 2 339 296 251 232 217 202 197 192 189 191 209 203 233 273 271 267 270 242 248 254 246
Height
1534 1536 1538 1540 1541 1542 1544 1545 1547 1548 1549 1550 1551 1553 1554 1554 1555 1555 1556 1556 1558 1559 1560 1560 1561 1562 1562 1562 1563 1563 1563 1564 1564 1564 1565 1564 1564 1563 1563 1562 1562 1562 1562
1533 1535 1538 1540 1541 1543 1545 1546 1548 1549 1550 1551 1553 1554 1554 1555 1556 1556 1556 1557 1558 1559 1560 1561 1562 1563 1562 1563 1563 1563 1564 1564 1565 1565 1566 1565 1565 1565 1565 1564 1564 1564 1563
1533 1535 1539 1541 1542 1543 1544 1546 1548 1549 1550 1552 1553 1554 1555 1555 1556 1556 1557 1557 1559 1560 1561 1562 1563 1563 1563 1563 1563 1564 1564 1565 1566 1566 1566 1566 1566 1565 1565 1565 1565 1565 1564
1534 1536 1539 1541 1543 1544 1545 1547 1549 1550 1551 1552 1553 1554 1555 1556 1557 1557 1558 1559 1560 1561 1561 1562 1563 1563 1563 1563 1563 1563 1564 1564 1565 1566 1566 1566 1566 1566 1566 1566 1565 1565 1565
1534 1536 1539 1541 1543 1545 1547 1548 1550 1551 1552 1552 1553 1554 1555 1556 1557 1558 1559 1559 1560 1561 1561 1562 1562 1563 1563 1563 1563 1563 1563 1564 1564 1565 1566 1566 1566 1566 1567 1566 1566 1566 1566
1534 1537 1539 1541 1543 1546 1548 1549 1550 1551 1551 1552 1553 1554 1555 1556 1557 1558 1560 1560 1560 1561 1561 1562 1562 1562 1562 1562 1562 1563 1563 1563 1564 1564 1564 1565 1566 1566 1566 1566 1566 1566 1565
1535 1538 1539 1541 1543 1545 1548 1550 1550 1551 1551 1552 1554 1555 1556 1557 1557 1558 1560 1560 1561 1561 1561 1562 1562 1561 1561 1561 1561 1561 1562 1562 1562 1562 1563 1563 1563 1564 1565 1565 1565 1565 1564
1535 1538 1539 1541 1543 1545 1548 1549 1550 1551 1552 1552 1553 1554 1555 1555 1556 1557 1558 1559 1560 1560 1561 1560 1560 1560 1559 1560 1560 1560 1559 1559 1559 1560 1561 1561 1561 1562 1563 1563 1563 1563 1563
1536 1537 1539 1541 1543 1545 1546 1548 1549 1550 1552 1553 1553 1553 1554 1555 1556 1557 1558 1558 1559 1559 1560 1559 1559 1559 1558 1558 1559 1558 1558 1558 1557 1558 1558 1559 1560 1560 1561 1561 1561 1561 1561
1536 1537 1538 1540 1542 1544 1546 1548 1549 1550 1551 1552 1552 1553 1554 1555 1555 1556 1557 1558 1558 1558 1558 1558 1558 1558 1557 1556 1556 1556 1556 1556 1556 1556 1555 1556 1557 1557 1558 1558 1558 1558 1558
1535 1535 1536 1538 1540 1542 1545 1546 1547 1548 1550 1552 1552 1553 1554 1554 1554 1554 1555 1556 1556 1557 1557 1557 1556 1556 1555 1555 1554 1554 1554 1554 1554 1554 1553 1553 1553 1554 1555 1556 1556 1555 1554
1531 1533 1535 1537 1538 1540 1542 1545 1547 1548 1549 1551 1552 1553 1553 1553 1553 1553 1554 1555 1555 1556 1555 1555 1555 1554 1553 1552 1552 1552 1552 1552 1550 1550 1550 1550 1550 1551 1551 1552 1553 1552 1552
1531 1532 1534 1537 1539 1540 1541 1544 1546 1549 1550 1550 1551 1552 1552 1553 1552 1552 1553 1553 1553 1554 1553 1554 1554 1552 1551 1550 1550 1550 1550 1550 1548 1547 1548 1548 1547 1547 1549 1549 1549 1549 1548
1535 1536 1536 1538 1539 1541 1542 1543 1545 1547 1549 1549 1550 1550 1551 1551 1552 1552 1551 1551 1551 1551 1552 1551 1551 1550 1550 1549 1549 1548 1548 1547 1546 1546 1545 1546 1545 1545 1545 1546 1545 1545 1545
1531 1533 1537 1538 1539 1541 1542 1543 1544 1546 1548 1550 1550 1550 1551 1550 1550 1550 1550 1550 1550 1549 1549 1549 1549 1549 1548 1548 1547 1546 1545 1544 1543 1543 1542 1542 1542 1542 1542 1542 1542 1541 1541
1531 1531 1535 1539 1540 1541 1541 1542 1543 1545 1547 1548 1549 1550 1550 1549 1549 1549 1548 1548 1547 1546 1546 1546 1547 1546 1545 1544 1544 1543 1543 1543 1541 1540 1539 1539 1539 1539 1539 1539 1539 1538 1536
1530 1530 1532 1536 1540 1541 1541 1542 1542 1543 1545 1546 1548 1548 1549 1549 1547 1546 1546 1545 1545 1544 1544 1543 1543 1543 1542 1541 1540 1541 1541 1540 1539 1538 1536 1536 1535 1534 1535 1536 1536 1535 1533
1526 1528 1530 1533 1536 1539 1540 1541 1542 1543 1545 1546 1548 1547 1546 1547 1546 1544 1544 1543 1542 1541 1540 1540 1540 1539 1539 1539 1537 1537 1537 1537 1537 1535 1534 1533 1533 1532 1532 1532 1532 1531 1530
1521 1523 1529 1531 1533 1535 1537 1538 1540 1541 1542 1543 1544 1545 1544 1544 1544 1541 1540 1539 1538 1537 1536 1536 1536 1535 1535 1535 1534 1533 1534 1534 1533 1532 1531 1531 1530 1530 1529 1529 1528 1527 1526
1517 1518 1524 1528 1529 1531 1534 1535 1535 1535 1537 1539 1542 1542 1541 1541 1540 1538 1536 1535 1534 1533 1532 1532 1531 1531 1530 1530 1530 1529 1529 1529 1528 1528 1527 1527 1526 1526 1526 1525 1525 1524 1523
1512 1518 1519 1524 1525 1527 1530 1532 1531 1531 1533 1535 1538 1538 1536 1536 1535 1533 1530 1530 1529 1528 1527 1526 1525 1524 1524 1525 1525 1524 1524 1523 1523 1522 1523 1522 1522 1522 1521 1521 1521 1521 1519
1507 1517 1517 1519 1523 1524 1527 1528 1526 1526 1529 1532 1533 1531 1531 1531 1530 1528 1524 1524 1522 1520 1520 1519 1519 1518 1517 1519 1519 1518 1517 1519 1518 1517 1517 1517 1517 1518 1518 1518 1517 1517 1516
1499 1508 1510 1513 1518 1519 1522 1523 1521 1522 1526 1528 1528 1527 1527 1526 1523 1521 1517 1515 1514 1513 1512 1512 1511 1510 1510 1512 1514 1514 1512 1511 1513 1513 1512 1512 1511 1513 1515 1514 1514 1513 1513
1495 1497 1497 1503 1510 1512 1516 1518 1519 1520 1523 1524 1524 1523 1523 1520 1516 1513 1509 1508 1507 1506 1505 1504 1504 1503 1504 1506 1508 1508 1508 1509 1509 1508 1508 1507 1506 1508 1509 1509 1509 1508 1508
1497 1496 1496 1499 1504 1508 1512 1515 1516 1517 1520 1520 1519 1520 1518 1515 1511 1507 1504 1502 1501 1500 1499 1498 1497 1497 1498 1500 1502 1502 1504 1504 1503 1504 1503 1500 1500 1502 1504 1504 1503 1503 1503
1495 1497 1495 1497 1502 1507 1509 1511 1513 1514 1516 1517 1517 1515 1513 1510 1507 1504 1501 1499 1497 1496 1495 1493 1491 1492 1493 1495 1497 1498 1498 1499 1499 1498 1498 1496 1496 1496 1498 1498 1498 1498 1498